Regional Weather Roundup
Issued by NWS Kansas City/Pleasant Hill, MO

Home | Current Version | Previous Version | Graphics & Text | Print | Product List | Glossary Off
Versions: 1 2 3 4 5 6 7 8 9 10 11 12 13 14 15 16 17 18 19 20 21 22 23 24 25 26 27 28 29 30 31 32 33 34 35 36 37 38 39 40 41 42 43 44 45 46 47 48 49 50

000
ASUS43 KEAX 032311
RWREAX

WEATHER ROUNDUP FOR EASTERN KANSAS AND NORTHWEST MISSOURI
NATIONAL WEATHER SERVICE KANSAS CITY/PLEASANT HILL MO
500 PM CST TUE MAR 03 2015

KSZ040-057-103>105-MOZ028-029-037-043-040000-
...KANSAS CITY METROPOLITAN AREA...

CITY           SKY/WX    TMP DP  RH WIND       PRES   REMARKS
K.C. INTL      CLOUDY    40  29  64 N7        29.87R
K.C. DOWNTOWN  CLOUDY    43  28  55 N9        29.88R
LEES SUMMIT    CLOUDY    40  30  67 N12       29.88R WCI  33
OLATHE - IXD   CLOUDY    40  29  64 N8        29.90R WCI  34
OLATHE - OJC   CLOUDY    41  29  62 N10       29.87R WCI  35
LAWRENCE       CLOUDY    42  27  55 N12       29.89R

$$

MOZ001>008-011>017-020>025-030>033-038>040-044>046-053-054-040000-
...NORTHERN AND CENTRAL MISSOURI...

CITY           SKY/WX    TMP DP  RH WIND       PRES   REMARKS
ST. JOSEPH     CLOUDY    37  27  67 N22       29.90R WCI  26
MOSBY          CLOUDY    39  30  70 NW8       29.89R WCI  34
WARRENSBURG    CLOUDY    39  34  81 N6        29.86R WCI  35
WHITEMAN AFB   CLOUDY    40  35  83 N7        29.88R WCI  35
CLINTON        CLOUDY    45  43  93 W3        29.86R
SEDALIA        CLOUDY    41  36  82 N13G21    29.87R WCI  34
WARSAW         NOT AVBL
MARSHALL       CLOUDY    43  37  81 NW10G21   29.85R FOG
CHILLICOTHE      N/A     38  30  73 NW8       29.87F WCI  32
MOBERLY        CLOUDY    37  34  87 NW5       29.83  FOG     WCI  34
KIRKSVILLE     NOT AVBL

$$

MOZ041-047>049-056>058-063>065-088>090-097-040000-
...EASTERN AND SOUTHERN MISSOURI...

CITY           SKY/WX    TMP DP  RH WIND       PRES   REMARKS
ST. LOUIS INTL CLOUDY    44  40  85 NW3       29.83S FOG
SPIRIT OF STL  CLOUDY    43  40  89 CALM      29.81F
COLUMBIA       CLOUDY    42  40  92 NW7       29.83R FOG
JEFFERSON CITY CLOUDY    46  39  76 W7        29.84R
MEXICO         CLOUDY   N/A N/A N/A W5        29.81F FOG
HANNIBAL       CLOUDY    39  37  93 NW10      29.83S FOG     WCI  32
ROLLA          CLOUDY    44  39  82 W14       29.83R
OSAGE BEACH    CLOUDY    46  37  71 SW6       29.85R
SPRINGFIELD    CLOUDY    47  42  83 NW10      29.84S
BRANSON        CLOUDY    54  50  87 SW7       29.83R
NEVADA         CLOUDY    43  41  93 SE6       29.86S
JOPLIN         CLOUDY    47  44  90 SW3       29.85S
WEST PLAINS    FOG       48  47  96 SW3       29.82F VSB 1/2

$$

IAZ060-094-KSZ022-034>040-054-083-096-NEZ052-066-093-040000-
...KANSAS...SOUTHEAST NEBRASKA AND IOWA...

CITY           SKY/WX    TMP DP  RH WIND       PRES   REMARKS
TOPEKA         CLOUDY    43  27  53 N13       29.89R
MANHATTAN      CLOUDY    37  24  59 N13G20    29.91R WCI  29
EMPORIA        CLOUDY    42  28  57 N9        29.88R
CHANUTE        CLOUDY    47  37  68 N14       29.85R
WICHITA        CLOUDY    44  28  53 NE12      29.86F
OMAHA          PTSUNNY   30  15  53 N21G31    29.93R WCI  17
LINCOLN        PTSUNNY   32  11  41 N21       29.96R WCI  20
FALLS CITY     PTSUNNY   35  21  56 N15G24    29.91R WCI  25
LAMONI         CLOUDY    34  26  72 NW17      29.85R WCI  23
DES MOINES     CLOUDY    31  21  66 N18G30    29.87R WCI  19

$$




USA.gov is the U.S. government's official web portal to all federal, state and local government web resources and services.